• en Suisse
  • Liste des pays
  • À 7 jours
  • Température de l'eau
  • Carte satellitaire
  • Carte météo
  • Widgets météo
  • user-avatar
    Se connecter

    Météo par heure à Serhiivka

    Ce jour, 18 Juillet, Mercredi

    Heure Température Précipitation Vent Pression Humidité
    00:00 +22°C° 0,1 mm 4 m/s 751 mmHg 72%
    01:00 +22°C° 0,1 mm 4 m/s 751 mmHg 74%
    02:00 +21°C° 0 mm 3 m/s 751 mmHg 79%
    03:00 +21°C° 0,1 mm 3 m/s 751 mmHg 78%
    04:00 +21°C° 0,1 mm 3 m/s 751 mmHg 78%
    05:00 +21°C° 0,1 mm 2 m/s 751 mmHg 78%
    06:00 +24°C° 0 mm 3 m/s 751 mmHg 69%
    07:00 +26°C° 0 mm 3 m/s 751 mmHg 60%
    08:00 +28°C° 0 mm 3 m/s 751 mmHg 52%
    09:00 +29°C° 0 mm 4 m/s 750 mmHg 48%
    10:00 +30°C° 0 mm 4 m/s 750 mmHg 44%
    11:00 +32°C° 0 mm 4 m/s 750 mmHg 40%
    12:00 +32°C° 0 mm 4 m/s 750 mmHg 40%
    13:00 +33°C° 0 mm 5 m/s 750 mmHg 40%
    14:00 +32°C° 0 mm 5 m/s 750 mmHg 40%
    15:00 +32°C° 0 mm 4 m/s 750 mmHg 41%
    16:00 +32°C° 0 mm 4 m/s 750 mmHg 41%
    17:00 +32°C° 0 mm 4 m/s 750 mmHg 41%
    18:00 +29°C° 0 mm 3 m/s 750 mmHg 46%
    19:00 +28°C° 0 mm 3 m/s 750 mmHg 51%
    20:00 +26°C° 0 mm 3 m/s 750 mmHg 56%
    21:00 +25°C° 0 mm 3 m/s 750 mmHg 60%
    22:00 +25°C° 0 mm 3 m/s 750 mmHg 63%
    23:00 +24°C° 0 mm 3 m/s 750 mmHg 67%

    Demain, 19 Juillet, Jeudi

    Heure Température Précipitation Vent Pression Humidité
    00:00 +24°C° 0 mm 2 m/s 750 mmHg 69%
    01:00 +23°C° 0 mm 2 m/s 750 mmHg 72%
    02:00 +23°C° 0 mm 2 m/s 750 mmHg 74%
    03:00 +23°C° 0 mm 2 m/s 750 mmHg 75%
    04:00 +23°C° 0 mm 2 m/s 750 mmHg 76%
    05:00 +23°C° 0 mm 2 m/s 750 mmHg 77%
    06:00 +25°C° 0 mm 2 m/s 750 mmHg 69%
    07:00 +26°C° 0 mm 2 m/s 750 mmHg 61%
    08:00 +28°C° 0 mm 2 m/s 750 mmHg 54%
    09:00 +29°C° 0 mm 2 m/s 750 mmHg 49%
    10:00 +30°C° 0 mm 2 m/s 750 mmHg 45%
    11:00 +31°C° 0 mm 2 m/s 750 mmHg 40%
    12:00 +33°C° 0 mm 3 m/s 751 mmHg 39%
    13:00 +33°C° 0 mm 3 m/s 751 mmHg 38%
    14:00 +33°C° 0 mm 3 m/s 751 mmHg 36%
    15:00 +33°C° 0 mm 3 m/s 751 mmHg 37%
    16:00 +33°C° 0 mm 4 m/s 751 mmHg 38%
    17:00 +33°C° 0 mm 4 m/s 751 mmHg 39%
    18:00 +30°C° 0,1 mm 4 m/s 751 mmHg 44%
    19:00 +28°C° 0,1 mm 4 m/s 751 mmHg 49%
    20:00 +27°C° 0,1 mm 3 m/s 751 mmHg 54%
    21:00 +26°C° 0,1 mm 3 m/s 751 mmHg 58%
    22:00 +25°C° 0,1 mm 3 m/s 751 mmHg 63%
    23:00 +24°C° 0,1 mm 3 m/s 752 mmHg 67%

    Après-demain, 20 Juillet, Vendredi

    Heure Température Précipitation Vent Pression Humidité
    00:00 +24°C° 0 mm 3 m/s 752 mmHg 70%
    01:00 +22°C° 0 mm 3 m/s 752 mmHg 72%
    02:00 +22°C° 0 mm 3 m/s 751 mmHg 75%
    03:00 +22°C° 0 mm 3 m/s 751 mmHg 76%
    04:00 +22°C° 0 mm 3 m/s 751 mmHg 77%
    05:00 +22°C° 0 mm 3 m/s 751 mmHg 78%
    06:00 +25°C° 0 mm 3 m/s 752 mmHg 70%
    07:00 +27°C° 0 mm 3 m/s 752 mmHg 62%
    08:00 +29°C° 0 mm 3 m/s 752 mmHg 54%
    09:00 +30°C° 0 mm 3 m/s 752 mmHg 49%
    10:00 +33°C° 0 mm 4 m/s 752 mmHg 45%
    11:00 +34°C° 0 mm 4 m/s 752 mmHg 40%
    12:00 +34°C° 0 mm 4 m/s 752 mmHg 41%
    13:00 +34°C° 0 mm 4 m/s 752 mmHg 41%
    14:00 +33°C° 0 mm 4 m/s 752 mmHg 41%
    15:00 +33°C° 0 mm 4 m/s 752 mmHg 43%
    16:00 +33°C° 0 mm 4 m/s 752 mmHg 45%
    17:00 +33°C° 0 mm 4 m/s 752 mmHg 46%
    18:00 +30°C° 0,1 mm 4 m/s 752 mmHg 51%
    19:00 +29°C° 0,1 mm 4 m/s 753 mmHg 55%
    20:00 +28°C° 0,1 mm 3 m/s 753 mmHg 59%
    21:00 +27°C° 0,1 mm 3 m/s 753 mmHg 62%
    22:00 +26°C° 0,1 mm 4 m/s 753 mmHg 65%
    23:00 +26°C° 0,1 mm 4 m/s 753 mmHg 68%

    21 Juillet, Samedi

    Heure Température Précipitation Vent Pression Humidité
    00:00 +25°C° 0 mm 3 m/s 753 mmHg 69%
    01:00 +25°C° 0 mm 3 m/s 753 mmHg 70%
    02:00 +24°C° 0 mm 3 m/s 753 mmHg 71%
    03:00 +24°C° 0 mm 2 m/s 753 mmHg 72%
    04:00 +24°C° 0 mm 2 m/s 753 mmHg 73%
    05:00 +24°C° 0 mm 2 m/s 753 mmHg 73%
    06:00 +26°C° 0 mm 2 m/s 753 mmHg 67%
    07:00 +27°C° 0 mm 2 m/s 754 mmHg 60%
    08:00 +29°C° 0 mm 2 m/s 754 mmHg 54%
    09:00 +30°C° 0 mm 3 m/s 754 mmHg 49%
    10:00 +31°C° 0 mm 3 m/s 754 mmHg 45%
    11:00 +34°C° 0 mm 4 m/s 754 mmHg 40%
    12:00 +34°C° 0 mm 4 m/s 754 mmHg 40%
    13:00 +34°C° 0 mm 4 m/s 754 mmHg 39%
    14:00 +34°C° 0 mm 5 m/s 754 mmHg 39%
    15:00 +34°C° 0 mm 5 m/s 754 mmHg 41%
    16:00 +33°C° 0 mm 5 m/s 754 mmHg 43%
    17:00 +32°C° 0 mm 5 m/s 754 mmHg 45%
    18:00 +30°C° 0 mm 5 m/s 754 mmHg 50%
    19:00 +29°C° 0 mm 4 m/s 754 mmHg 55%
    20:00 +28°C° 0 mm 4 m/s 754 mmHg 59%
    21:00 +27°C° 0,1 mm 4 m/s 754 mmHg 62%
    22:00 +27°C° 0,1 mm 4 m/s 754 mmHg 65%
    23:00 +26°C° 0,1 mm 4 m/s 754 mmHg 68%

    22 Juillet, Dimanche

    Heure Température Précipitation Vent Pression Humidité
    00:00 +26°C° 0,1 mm 4 m/s 754 mmHg 72%
    01:00 +25°C° 0,1 mm 3 m/s 754 mmHg 75%
    02:00 +24°C° 0,1 mm 3 m/s 754 mmHg 78%
    03:00 +24°C° 0 mm 3 m/s 754 mmHg 79%
    04:00 +24°C° 0 mm 2 m/s 754 mmHg 80%
    05:00 +24°C° 0 mm 2 m/s 754 mmHg 81%
    06:00 +26°C° 0 mm 2 m/s 754 mmHg 74%
    07:00 +27°C° 0 mm 2 m/s 754 mmHg 67%
    08:00 +29°C° 0 mm 3 m/s 754 mmHg 60%
    09:00 +30°C° 0,2 mm 3 m/s 754 mmHg 55%
    10:00 +31°C° 0,2 mm 3 m/s 754 mmHg 50%
    11:00 +33°C° 0,2 mm 4 m/s 754 mmHg 45%
    12:00 +33°C° 0 mm 3 m/s 754 mmHg 44%
    13:00 +33°C° 0 mm 3 m/s 754 mmHg 43%
    14:00 +34°C° 0 mm 3 m/s 753 mmHg 42%
    15:00 +33°C° 0 mm 3 m/s 753 mmHg 42%
    16:00 +33°C° 0 mm 3 m/s 753 mmHg 43%
    17:00 +33°C° 0 mm 3 m/s 753 mmHg 43%
    18:00 +31°C° 0 mm 3 m/s 753 mmHg 47%
    19:00 +30°C° 0 mm 3 m/s 753 mmHg 50%
    20:00 +29°C° 0 mm 3 m/s 754 mmHg 54%
    21:00 +28°C° 0 mm 3 m/s 754 mmHg 56%
    22:00 +27°C° 0 mm 3 m/s 754 mmHg 58%
    23:00 +27°C° 0 mm 3 m/s 754 mmHg 61%

    23 Juillet, Lundi

    Heure Température Précipitation Vent Pression Humidité
    00:00 +26°C° 0,1 mm 3 m/s 754 mmHg 64%
    01:00 +25°C° 0,1 mm 3 m/s 754 mmHg 67%
    02:00 +25°C° 0,1 mm 3 m/s 754 mmHg 71%
    03:00 +24°C° 0 mm 2 m/s 754 mmHg 72%
    04:00 +24°C° 0 mm 2 m/s 754 mmHg 74%
    05:00 +24°C° 0 mm 2 m/s 754 mmHg 75%
    06:00 +26°C° 0 mm 2 m/s 754 mmHg 69%
    07:00 +27°C° 0 mm 2 m/s 754 mmHg 63%
    08:00 +29°C° 0 mm 2 m/s 754 mmHg 56%
    09:00 +30°C° 0 mm 2 m/s 754 mmHg 50%
    10:00 +31°C° 0 mm 2 m/s 754 mmHg 44%
    11:00 +34°C° 0 mm 2 m/s 753 mmHg 38%
    12:00 +34°C° 0 mm 2 m/s 753 mmHg 36%
    13:00 +35°C° 0 mm 3 m/s 753 mmHg 33%
    14:00 +35°C° 0 mm 3 m/s 753 mmHg 30%
    15:00 +35°C° 0 mm 3 m/s 753 mmHg 31%
    16:00 +35°C° 0 mm 3 m/s 753 mmHg 31%
    17:00 +35°C° 0 mm 3 m/s 753 mmHg 31%
    18:00 +33°C° 0 mm 3 m/s 753 mmHg 35%
    19:00 +31°C° 0 mm 3 m/s 753 mmHg 39%
    20:00 +29°C° 0 mm 3 m/s 754 mmHg 42%
    21:00 +28°C° 0 mm 3 m/s 754 mmHg 44%
    22:00 +27°C° 0 mm 3 m/s 754 mmHg 47%
    23:00 +26°C° 0 mm 3 m/s 754 mmHg 49%
    Voir plus